Park Rapids, MN

1:37 AM CST on December 18, 2017 (GMT -0600)
Park Rapids Municipal

Weather History for KPKD - December, 2014

Change the Weather History Date:

Tuesday, December 23, 2014

  Actual Average Record
Temperature  
Mean Temperature 34 °F -  
Max Temperature 36 °F 18 °F 43 °F (1994)
Min Temperature 33 °F 0 °F -35 °F (1983)
Degree Days  
Heating Degree Days 30    
Moisture  
Dew Point 32 °F    
Average Humidity 93    
Maximum Humidity 100    
Minimum Humidity 89    
Precipitation  
Precipitation 0.00 in - - ()
Sea Level Pressure  
Sea Level Pressure 29.84 in    
Wind  
Wind Speed 8 mph (North)    
Max Wind Speed 14 mph    
Max Gust Speed -    
Visibility 6 miles    
Events Snow    
Averages and records for this station are not official NWS values.
T = Trace of Precipitation, MM = Missing Value Source: NWS Daily Summary

Daily Weather History Graph

Daily Weather History Graph

Search for Another Location

Airport or City:

Trip Planner

Search our weather history database for the weather conditions in past years. The results will help you decide how hot, cold, wet, or windy it might be!

Date:

Astronomy

Dec. 23, 2014 Rise Set
Actual Time 8:03 AM CST 4:35 PM CST
Civil Twilight 7:28 AM CST 5:10 PM CST
Nautical Twilight 6:49 AM CST 5:49 PM CST
Astronomical Twilight 6:12 AM CST 6:26 PM CST
Moon 9:02 AM CST (12/23) 6:59 PM CST (12/23)
Length of Visible Light 9h 42m
Length of Day
8h 31m
Waxing Crescent, 4% of the Moon is Illuminated
Dec 23
Waxing Crescent
Dec 28
First Quarter
Jan 4
Full
Jan 13
Last Quarter
Jan 20
New

Hourly Weather History & Observations

Time (CST) Temp. Windchill Dew Point Humidity Pressure Visibility Wind Dir Wind Speed Gust Speed Precip Events Conditions
12:24 AM 34.0 °F 29.8 °F 32.0 °F 92% 29.70 in 5.0 mi East 4.6 mph - N/A   Overcast
12:53 AM 34.0 °F 28.0 °F 32.0 °F 92% 29.75 in 5.0 mi ENE 6.9 mph - N/A   Overcast
1:53 AM 34.0 °F 28.8 °F 33.1 °F 96% 29.77 in 4.0 mi ENE 5.8 mph - N/A   Overcast
2:53 AM 34.0 °F 28.0 °F 33.1 °F 96% 29.78 in 2.5 mi ENE 6.9 mph - N/A   Overcast
3:08 AM 34.0 °F 27.2 °F 33.1 °F 96% 29.73 in 1.5 mi ENE 8.1 mph - N/A   Overcast
3:53 AM 34.0 °F 28.0 °F 33.1 °F 96% 29.79 in 1.8 mi NE 6.9 mph - N/A   Overcast
4:07 AM 34.0 °F 28.0 °F 32.0 °F 92% 29.75 in 2.5 mi ENE 6.9 mph - N/A   Overcast
4:20 AM 33.8 °F 27.7 °F 33.8 °F 100% 29.75 in 1.8 mi NE 6.9 mph - N/A   Overcast
4:28 AM 34.0 °F 26.6 °F 32.0 °F 92% 29.75 in 2.5 mi ENE 9.2 mph - N/A   Overcast
4:43 AM 33.1 °F 26.9 °F 32.0 °F 96% 29.75 in 1.8 mi NE 6.9 mph - N/A   Overcast
4:53 AM 33.1 °F 28.7 °F 33.1 °F 100% 29.81 in 1.2 mi NE 4.6 mph - N/A   Overcast
5:40 AM 33.1 °F 25.5 °F 32.0 °F 96% 29.76 in 0.8 mi NNE 9.2 mph - N/A   Mist
5:53 AM 33.1 °F 26.1 °F 32.0 °F 96% 29.82 in 0.8 mi NNE 8.1 mph - N/A   Mist
6:39 AM 33.1 °F 25.5 °F 32.0 °F 96% 29.78 in 1.0 mi North 9.2 mph - N/A   Overcast
6:53 AM 33.1 °F 25.5 °F 32.0 °F 96% 29.83 in 1.5 mi North 9.2 mph - N/A   Overcast
7:02 AM 33.1 °F 26.9 °F 32.0 °F 96% 29.78 in 3.0 mi North 6.9 mph - N/A   Overcast
7:53 AM 33.1 °F 25.5 °F 32.0 °F 96% 29.84 in 2.5 mi North 9.2 mph - N/A   Overcast
8:07 AM 33.1 °F 24.9 °F 32.0 °F 96% 29.79 in 4.0 mi North 10.4 mph - N/A   Overcast
8:53 AM 34.0 °F 26.0 °F 32.0 °F 92% 29.85 in 6.0 mi North 10.4 mph - N/A   Overcast
9:30 AM 34.0 °F 26.0 °F 32.0 °F 92% 29.81 in 6.0 mi North 10.4 mph - N/A   Overcast
9:53 AM 34.0 °F 26.0 °F 32.0 °F 92% 29.87 in 7.0 mi North 10.4 mph - N/A   Overcast
10:53 AM 35.1 °F 26.9 °F 33.1 °F 92% 29.89 in 6.0 mi North 11.5 mph - N/A   Overcast
11:16 AM 35.1 °F 27.4 °F 33.1 °F 92% 29.84 in 6.0 mi North 10.4 mph - N/A   Overcast
11:46 AM 36.0 °F 29.0 °F 33.1 °F 89% 29.83 in 6.0 mi North 9.2 mph - N/A   Overcast
11:53 AM 36.0 °F 29.6 °F 33.1 °F 89% 29.88 in 6.0 mi NNW 8.1 mph - N/A   Overcast
12:53 PM 36.0 °F 27.1 °F 33.1 °F 89% 29.87 in 9.0 mi North 13.8 mph - N/A   Overcast
1:53 PM 36.0 °F 27.1 °F 33.1 °F 89% 29.88 in 9.0 mi North 13.8 mph - N/A   Overcast
2:27 PM 35.1 °F 26.9 °F 33.1 °F 92% 29.83 in 8.0 mi North 11.5 mph - N/A   Overcast
2:53 PM 35.1 °F 25.9 °F 33.1 °F 92% 29.88 in 10.0 mi North 13.8 mph - N/A   Overcast
3:53 PM 35.1 °F 26.4 °F 33.1 °F 92% 29.90 in 10.0 mi North 12.7 mph - N/A   Overcast
4:53 PM 35.1 °F 26.9 °F 32.0 °F 89% 29.93 in 10.0 mi North 11.5 mph - N/A   Overcast
5:22 PM 35.1 °F 25.9 °F 32.0 °F 89% 29.88 in 10.0 mi North 13.8 mph - N/A   Overcast
5:53 PM 34.0 °F 26.6 °F 33.1 °F 96% 29.93 in 10.0 mi North 9.2 mph - N/A   Overcast
6:53 PM 34.0 °F 27.2 °F 32.0 °F 92% 29.94 in 10.0 mi North 8.1 mph - N/A   Overcast
7:49 PM 33.8 °F 26.4 °F 32.0 °F 93% 29.89 in 7.0 mi NNW 9.2 mph - N/A   Overcast
7:53 PM 34.0 °F 25.5 °F 32.0 °F 92% 29.94 in 7.0 mi NNW 11.5 mph - N/A   Overcast
8:53 PM 34.0 °F 25.5 °F 32.0 °F 92% 29.95 in 10.0 mi NNW 11.5 mph - N/A   Overcast
9:53 PM 34.0 °F 26.6 °F 30.9 °F 89% 29.96 in 10.0 mi NNW 9.2 mph - N/A   Overcast
10:53 PM 34.0 °F 27.2 °F 30.9 °F 89% 29.96 in 9.0 mi NNW 8.1 mph - 0.00 in Snow Light Snow
11:43 PM 33.1 °F 26.1 °F 30.9 °F 92% 29.90 in 9.0 mi NNW 8.1 mph - 0.00 in Snow Light Snow
11:53 PM 33.1 °F 26.1 °F 30.9 °F 92% 29.95 in 9.0 mi NW 8.1 mph - 0.00 in Snow Light Snow